This demonstration page uses our WeatherBlox Daily Observations layout. Learn more.

Left ArrowRight Arrow

41.55636, -103.73856

Hourly Observations for July 25, 2017

Temp ( °F °C ) Dew Point ( °F °C ) Humidity (%) Winds ( mph kmh ) Pressure ( in mb ) Visibility ( mi km ) Precip ( " mm )
12:53 am 00:53 Clear 82 27.8 54 12.2 38 38 SSE 15 24 29.75 1008 10 16 0.00 0.00
1:53 am 01:53 Clear 81 27.2 55 12.8 41 41 S 6 9 29.74 1007 10 16 0.00 0.00
2:53 am 02:53 Clear 80 26.7 56 13.3 44 44 WSW 6 9 29.74 1007 10 16 0.00 0.00
3:53 am 03:53 Clear 78 25.6 55 12.8 45 45 Calm 29.74 1007 10 16 0.00 0.00
4:53 am 04:53 Clear 75 23.9 56 13.3 52 52 N 6 9 29.75 1007 10 16 0.00 0.00
5:53 am 05:53 Sunny 69 20.6 58 14.4 68 68 NE 5 7 29.77 1008 10 16 0.00 0.00
6:53 am 06:53 Sunny 72 22.2 58 14.4 61 61 Calm 29.78 1008 10 16 0.00 0.00
7:53 am 07:53 Sunny 74 23.3 59 15 60 60 E 7 11 29.80 1009 10 16 0.00 0.00
8:53 am 08:53 Sunny 79 26.1 59 15 50 50 VRB 3 6 29.82 1010 10 16 0.00 0.00
9:53 am 09:53 Sunny 85 29.4 54 12.2 35 35 VRB 3 6 29.82 1010 10 16 0.00 0.00
10:53 am 10:53 Sunny 92 33.3 49 9.4 23 23 WNW 12 19 29.81 1009 10 16 0.00 0.00
11:53 am 11:53 Sunny 89 31.7 50 10 26 26 WNW 10 17 29.80 1009 10 16 0.00 0.00
12:53 pm 12:53 Sunny 90 32.2 54 12.2 29 29 W 9 15 29.80 1009 10 16 0.00 0.00
1:53 pm 13:53 Sunny 92 33.3 56 13.3 30 30 W 8 13 29.79 1009 10 16 0.00 0.00
2:53 pm 14:53 Sunny 95 35 52 11.1 23 23 WNW 10 17 29.77 1008 10 16 0.00 0.00
3:53 pm 15:53 Sunny 94 34.4 51 10.6 23 23 WNW 13 20 29.76 1008 10 16 0.00 0.00
4:53 pm 16:53 Sunny 96 35.6 54 12.2 24 24 N 13 20 29.77 1008 10 16 0.00 0.00
5:53 pm 17:53 Sunny 90 32.2 56 13.3 32 32 NNE 9 15 29.79 1009 10 16 0.00 0.00
6:53 pm 18:53 Sunny 87 30.6 59 15 39 39 NNE 12 19 29.82 1010 10 16 0.00 0.00
7:53 pm 19:53 Mostly Cloudy 84 28.9 59 15 43 43 N 16 26 29.85 1011 10 16 0.00 0.00
8:53 pm 20:53 Mostly Cloudy with Light Rain 82 27.8 58 14.4 44 44 NNW 12 19 29.86 1011 10 16 0.00 0.03
9:53 pm 21:53 Mostly Clear with Light Rain 79 26.1 57 13.9 47 47 N 15 24 29.88 1012 10 16 0.00 0.03
10:53 pm 22:53 Mostly Cloudy 78 25.6 56 13.3 47 47 N 16 26 29.88 1012 10 16 0.00 0.03
11:53 pm 23:53 Clear 76 24.4 60 15.6 58 58 N 14 22 29.90 1013 10 16 0.00 0.00

Powered by AerisWeather